This is the latest recevied weather packets stored in our database for station/object WAYLND-WX. If no packets are shown the sender has not sent any weather packets the latest 10 day(s).
| Time | Temp. | Humidity | Pressure | Rain* | Wind** | Luminosity | Snow |
|---|---|---|---|---|---|---|---|
| 1777712470 | -0.56° C | 85% | 990.6 hPa | 0 mm | - | - | - |
| 1777711540 | -0.56° C | 82% | 990.3 hPa | 0 mm | - | - | - |
| 1777710661 | -0.56° C | 84% | 990.4 hPa | 0 mm | - | - | - |
| 1777709742 | -0.56° C | 84% | 990.4 hPa | 0 mm | - | - | - |
| 1777708873 | -0.56° C | 84% | 990.4 hPa | 0 mm | - | - | - |
| 1777707941 | -0.56° C | 81% | 989.8 hPa | 0 mm | - | - | - |
| 1777707056 | -0.56° C | 81% | 989.8 hPa | 0 mm | - | - | - |
| 1777706142 | -0.56° C | 81% | 989.8 hPa | 0 mm | - | - | - |
| 1777705270 | -0.56° C | 81% | 989.8 hPa | 0 mm | - | - | - |
| 1777704342 | -0.56° C | 77% | 991 hPa | 0 mm | - | - | - |
| 1777703462 | 0° C | 79% | 991 hPa | 0 mm | - | - | - |
| 1777702542 | 0° C | 79% | 991 hPa | 0 mm | - | - | - |
| 1777701682 | 0° C | 79% | 991 hPa | 0 mm | - | - | - |
| 1777700742 | 0° C | 73% | 990.2 hPa | 0 mm | - | - | - |
| 1777699861 | 0° C | 75% | 990.5 hPa | 0 mm | - | - | - |
| 1777698941 | 0.56° C | 75% | 990.5 hPa | 0 mm | - | - | - |
| 1777698073 | 0.56° C | 75% | 990.5 hPa | 0 mm | - | - | - |
| 1777697143 | 0.56° C | 72% | 990.1 hPa | 0 mm | - | - | - |
| 1777696259 | 1.11° C | 72% | 990.2 hPa | 0 mm | - | - | - |
| 1777695341 | 1.11° C | 72% | 990.2 hPa | 0 mm | - | - | - |
| 1777694471 | 1.11° C | 72% | 990.2 hPa | 0 mm | - | - | - |
| 1777693541 | 1.11° C | 65% | 989.7 hPa | 0 mm | - | - | - |
| 1777692661 | 1.67° C | 69% | 989.2 hPa | 0 mm | - | - | - |
| 1777691741 | 1.67° C | 69% | 989.2 hPa | 0 mm | - | - | - |
| 1777690870 | 1.67° C | 69% | 989.2 hPa | 0 mm | - | - | - |
* Rain latest hour (hover to see other rain measurements)
** Current wind speed in m/s (hover to see current wind gust speed)